Regional Weather Roundup
Issued by NWS

Home | Current Version | Previous Version | Text Only | Print | Product List | Glossary On
Versions: 1 2 3 4 5 6 7 8 9 10 11 12 13 14 15 16 17 18 19 20 21 22 23 24 25 26 27 28 29 30 31 32 33 34 35 36 37 38 39 40 41 42 43 44 45 46 47 48 49 50
000
ASUS43 KLMK 312010
RWRKY
KENTUCKY REGIONAL WEATHER ROUNDUP
NATIONAL WEATHER SERVICE LOUISVILLE KY
400 PM EDT FRI JUL 31 2015

NOTE "FAIR" INDICATES FEW OR NO CLOUDS BELOW 12,000 FEET
WITH NO SIGNIFICANT WEATHER AND/OR OBSTRUCTIONS TO VISIBILITY.

KYZ001>023-026-027-061>063-070>075-312100-
WESTERN AND SOUTH CENTRAL KENTUCKY

CITY           SKY/WX    TMP DP  RH WIND       PRES   REMARKS
PADUCAH        MOSUNNY   88  67  49 N9        30.05F HX  91
HENDERSON      SUNNY     88  66  48 NW7       30.03F HX  90
OWENSBORO      SUNNY     89  67  48 N9        30.04F HX  92
HOPKINSVILLE   SUNNY     87  64  46 N5        30.05F
BOWLING GREEN  SUNNY     89  60  37 VRB6      30.05F
GLASGOW        MOSUNNY  N/A N/A N/A NE5       30.04F
$$

KYZ024-025-028>034-038-045-046-053-312100-
NORTH CENTRAL KENTUCKY

CITY           SKY/WX    TMP DP  RH WIND       PRES   REMARKS
LOUISVILLE/SDF MOSUNNY   90  58  33 W6G24     30.01F
LOUISVILLE/LOU MOSUNNY   90  54  29 NW10G18   30.03F
FORT KNOX      SUNNY     86  59  39 NW7       30.03F
$$

KYZ035>037-039>044-047>052-055>060-089>105-312100-
NORTHEAST KENTUCKY

CITY           SKY/WX    TMP DP  RH WIND       PRES   REMARKS
LEXINGTON      MOSUNNY   87  62  43 W7        30.04F
COVINGTON      MOSUNNY   87  58  37 NW16      30.01F
FRANKFORT      SUNNY     86  60  41 NW7       30.02F
$$

KYZ054-064>069-076>088-106>120-312100-
SOUTHEAST KENTUCKY

CITY           SKY/WX    TMP DP  RH WIND       PRES   REMARKS
JACKSON        MOSUNNY   84  57  39 MISG      30.05F
LONDON         SUNNY     86  52  30 N9        30.05F
SOMERSET       SUNNY     82  54  36 N5        30.06F
MIDDLESBORO    SUNNY     84  59  42 NW8       30.05F
MONTICELLO     CLEAR     88  59  37 NW3       30.08F
$$




USA.gov is the U.S. government's official web portal to all federal, state and local government web resources and services.